GW4658 Weather Reports


time (UTC)temp
F
wind
direction
speed
knots
gust
knots
rain 1hr
in
rain 24hr
in
rain mn
in
humidity
%
barometer
mb
20260906164525 73 179 3.5 9.6 0.00 0.00 0.00 82 1023.1
20260906163024 72 138 5.2 7.8 0.00 0.00 0.00 84 1023.1
20260906161517 72 110 0.9 2.6 0.00 0.00 0.00 85 1023.0
20260906160028 71 283 0.0 1.7 0.00 0.00 0.00 87 1023.4
20260906154511 70 118 0.9 2.6 0.00 0.00 0.00 88 1023.3
20260906153005 69 137 0.9 6.1 0.00 0.00 0.00 89 1023.3
20260906151501 69 359 2.6 8.7 0.00 0.00 0.00 89 1023.3
20260906144614 69 359 3.5 7.8 0.00 0.00 0.00 90 1023.0
20260906143108 68 359 2.6 4.3 0.00 0.00 0.00 90 1023.0
20260906141554 68 359 2.6 9.6 0.00 0.00 0.00 91 1022.9
20260906140045 67 359 3.5 7.0 0.00 0.00 0.00 92 1022.6
20260906134544 67 359 4.3 9.6 0.00 0.00 0.00 92 1022.6
20260906133032 66 359 3.5 11.3 0.00 0.00 0.00 92 1022.6
20260906131527 66 359 5.2 9.6 0.00 0.00 0.00 92 1022.4
20260906130037 66 359 3.5 9.6 0.00 0.00 0.00 92 1022.3
20260906124521 66 359 6.1 10.4 0.00 0.00 0.00 92 1022.2
20260906123017 66 359 3.5 8.7 0.00 0.00 0.00 92 1022.4
20260906121512 66 359 3.5 8.7 0.00 0.00 0.00 92 1022.3
20260906120009 67 359 4.3 7.8 0.00 0.00 0.00 92 1022.1
20260906114507 67 359 1.7 8.7 0.00 0.00 0.00 92 1022.1
20260906113002 67 359 1.7 4.3 0.00 0.00 0.00 93 1021.9
20260906111601 66 359 2.6 5.2 0.00 0.00 0.00 93 1021.6
20260906110100 66 359 2.6 5.2 0.00 0.00 0.00 93 1021.5
20260906104553 67 359 1.7 4.3 0.00 0.00 0.00 93 1021.4
20260906103052 67 359 1.7 4.3 0.00 0.00 0.00 93 1021.6
20260906101545 67 359 0.9 3.5 0.00 0.00 0.00 93 1021.3
20260906100041 67 359 3.5 7.0 0.00 0.00 0.00 92 1020.8
20260906094538 67 359 2.6 5.2 0.00 0.00 0.00 92 1020.7
20260906093033 68 359 2.6 7.0 0.00 0.00 0.00 92 1020.7
20260906091531 68 359 4.3 7.0 0.00 0.00 0.00 91 1020.6
20260906090025 69 359 3.5 8.7 0.00 0.00 0.00 91 1020.7
20260906084525 69 359 5.2 8.7 0.00 0.00 0.00 91 1020.6
20260906083023 69 359 2.6 7.0 0.00 0.00 0.00 91 1020.6
20260906081529 69 359 2.6 7.8 0.00 0.00 0.00 91 1020.5
20260906080010 69 359 5.2 8.7 0.00 0.00 0.00 91 1020.5
20260906074505 70 72 2.6 7.8 0.00 0.00 0.00 91 1020.7
20260906073110 70 82 4.3 9.6 0.00 0.00 0.00 90 1020.6
20260906071610 70 106 4.3 8.7 0.00 0.00 0.00 90 1020.8
20260906070056 70 64 3.5 8.7 0.00 0.00 0.00 89 1021.0
20260906064552 71 73 3.5 8.7 0.00 0.00 0.00 89 1021.3
20260906063049 71 60 4.3 9.6 0.00 0.00 0.00 89 1021.0
20260906061545 71 50 7.0 10.4 0.00 0.00 0.00 89 1021.1
20260906060041 71 97 4.3 9.6 0.00 0.00 0.00 89 1020.8
20260906054538 71 88 3.5 8.7 0.00 0.00 0.00 89 1020.9
20260906053037 71 35 4.3 7.8 0.00 0.00 0.00 88 1020.9
20260906051533 72 68 4.3 7.0 0.00 0.00 0.00 88 1020.7
20260906050048 72 87 1.7 5.2 0.00 0.00 0.00 88 1020.6
20260906044522 72 50 4.3 7.0 0.00 0.00 0.00 88 1020.8
20260906043018 72 91 2.6 4.3 0.00 0.00 0.00 89 1020.8
20260906041516 72 4 0.9 2.6 0.00 0.00 0.00 88 1020.8
20260906040011 72 251 0.0 2.6 0.00 0.00 0.00 88 1020.6
20260906034506 72 37 4.3 8.7 0.00 0.00 0.00 89 1020.1
20260906033002 72 56 2.6 3.5 0.00 0.00 0.00 88 1020.3
20260906031603 73 10 2.6 3.5 0.00 0.00 0.00 87 1020.5
20260906030133 73 318 0.9 1.7 0.00 0.00 0.00 87 1020.4
20260906024554 73 26 0.9 1.7 0.00 0.00 0.00 88 1020.0
20260906023053 73 42 0.9 2.6 0.00 0.00 0.00 88 1019.7
20260906021606 73 39 1.7 3.5 0.00 0.00 0.00 87 1019.5
20260906020043 74 35 2.6 3.5 0.00 0.00 0.00 86 1019.6
20260906014538 74 39 1.7 5.2 0.00 0.00 0.00 85 1019.2
20260906013035 75 70 2.6 6.1 0.00 0.00 0.00 84 1018.8
20260906011533 75 99 1.7 5.2 0.00 0.00 0.00 84 1018.5
20260906010026 75 89 3.5 8.7 0.00 0.00 0.00 83 1018.5
20260906004524 76 65 5.2 12.2 0.00 0.00 0.00 83 1018.5
20260906003018 77 93 6.1 13.9 0.00 0.02 0.00 82 1018.3
20260906001514 78 88 7.8 12.2 0.00 0.02 0.00 81 1018.3
20260906000010 78 81 6.1 10.4 0.00 0.02 0.00 80 1018.3
20260905234504 79 40 4.3 7.8 0.00 0.02 0.00 79 1018.3
20260905233001 80 62 6.1 13.0 0.00 0.02 0.00 78 1018.1
20260905231602 80 83 7.8 11.3 0.00 0.02 0.00 78 1018.1
20260905230057 80 54 6.1 14.8 0.00 0.02 0.00 78 1018.1
20260905224553 80 53 6.1 13.0 0.00 0.02 0.00 79 1018.0
20260905223050 80 59 7.0 10.4 0.00 0.11 0.00 79 1018.1
20260905221544 79 46 7.0 10.4 0.00 0.11 0.00 81 1018.2
20260905220040 79 67 6.1 12.2 0.00 0.11 0.00 79 1018.2
20260905214533 79 43 7.0 11.3 0.00 0.11 0.00 80 1018.3
20260905213029 79 21 4.3 9.6 0.00 0.11 0.00 79 1018.6
20260905211525 80 85 5.2 11.3 0.00 0.11 0.00 78 1018.6
20260905210023 79 41 3.5 12.2 0.00 0.11 0.00 80 1018.6
20260905204517 79 48 6.1 10.4 0.00 0.11 0.00 81 1018.6
20260905203015 80 49 5.2 8.7 0.00 0.11 0.00 80 1018.7
20260905201508 80 30 4.3 11.3 0.00 0.11 0.00 81 1018.7
20260905200004 80 43 6.1 10.4 0.00 0.11 0.00 82 1018.5
20260905194604 81 42 7.0 10.4 0.00 0.11 0.00 80 1018.9
20260905193059 82 18 3.5 8.7 0.00 0.11 0.00 80 1019.1
20260905191603 82 52 5.2 9.6 0.00 0.11 0.00 79 1018.9
20260905190051 82 50 5.2 10.4 0.00 0.11 0.00 79 1019.1
20260905184602 83 52 4.3 9.6 0.00 0.11 0.00 79 1019.0
20260905183043 82 37 6.1 11.3 0.00 0.11 0.00 79 1018.9
20260905181539 83 43 5.2 10.4 0.00 0.11 0.00 79 1019.0
20260905180035 83 41 4.3 10.4 0.00 0.11 0.00 80 1018.9
20260905174539 83 29 5.2 9.6 0.00 0.11 0.00 80 1018.9
20260905173028 82 37 7.0 10.4 0.00 0.11 0.00 81 1019.0
20260905171523 82 47 5.2 10.4 0.00 0.11 0.00 81 1019.0
20260905170019 82 35 5.2 10.4 0.00 0.11 0.00 80 1019.0